�N����,����,�~����,�C��,���x,�C��,����,���ϕ���,�ő�u�ԕ���,�ő厞����,���˗�,�I�_���x,�n�����x,�ő啗���N��,DTYPE
"19/09/27","00:10",0.0,20.5,91.5,1020.4,313.6,1.0,1.3,339.6,0.00,19.1,22.9,"00:00:40",1
"19/09/27","00:20",0.0,20.6,92.3,1019.9,328.6,1.1,2.0,351.7,0.00,19.3,23.0,"00:19:28",1
"19/09/27","00:30",0.0,20.7,92.1,1019.9,326.2,1.2,1.8,333.8,0.00,19.4,23.0,"00:20:24",1
"19/09/27","00:40",0.0,20.8,92.2,1019.9,299.0,1.0,1.7,327.3,0.00,19.5,22.9,"00:30:16",1
"19/09/27","00:50",0.0,20.8,92.3,1019.9,301.0,0.8,1.3,323.4,0.00,19.5,22.9,"00:40:08",1
"19/09/27","01:00",0.0,20.8,92.3,1019.4,321.8,1.1,2.0,326.5,0.00,19.5,22.9,"00:56:24",1
"19/09/27","01:10",0.0,20.8,92.3,1019.7,298.0,0.7,1.3,319.0,0.00,19.5,22.8,"01:00:08",1
"19/09/27","01:20",0.0,20.9,92.3,1019.7,312.8,0.8,1.8,319.1,0.00,19.6,22.9,"01:16:48",1
"19/09/27","01:30",0.0,20.9,92.1,1019.4,309.7,0.7,1.1,334.2,0.00,19.6,23.0,"01:20:40",1
"19/09/27","01:40",0.0,20.9,92.5,1019.9,311.6,1.1,1.8,320.0,0.00,19.7,22.8,"01:38:48",1
"19/09/27","01:50",0.0,21.2,92.3,1019.4,334.4,1.2,1.8,331.2,0.00,19.9,23.0,"01:40:32",1
"19/09/27","02:00",0.0,21.2,92.3,1019.7,303.0,1.0,1.7,322.2,0.00,19.9,22.8,"01:56:08",1
"19/09/27","02:10",0.0,21.2,92.2,1019.7,303.0,0.8,2.0,326.5,0.00,19.9,23.1,"02:08:40",1
"19/09/27","02:20",0.0,21.4,92.2,1019.4,327.3,1.1,2.0,326.5,0.00,20.1,22.8,"02:10:56",1
"19/09/27","02:30",0.0,21.4,92.0,1019.2,303.0,1.1,1.9,321.9,0.00,20.1,22.9,"02:27:12",1
"19/09/27","02:40",0.0,21.5,92.0,1019.4,303.5,1.0,1.8,317.7,0.00,20.2,22.8,"02:35:12",1
"19/09/27","02:50",0.0,21.4,91.8,1019.4,310.0,1.1,1.7,313.8,0.00,20.1,22.7,"02:42:24",1
"19/09/27","03:00",0.0,21.4,92.0,1019.2,321.5,1.3,2.1,316.9,0.00,20.1,22.8,"02:54:24",1
"19/09/27","03:10",0.0,21.4,92.2,1019.4,314.8,1.0,1.7,317.3,0.00,20.1,22.8,"03:02:40",1
"19/09/27","03:20",0.0,21.5,92.0,1019.4,314.1,1.3,2.2,330.1,0.00,20.2,22.7,"03:18:00",1
"19/09/27","03:30",0.0,21.6,92.0,1019.7,325.4,1.5,1.9,333.3,0.00,20.3,22.7,"03:26:32",1
"19/09/27","03:40",0.0,21.7,91.9,1019.7,321.9,1.3,1.9,327.4,0.00,20.4,22.9,"03:30:32",1
"19/09/27","03:50",0.0,21.7,91.8,1019.4,303.5,1.0,1.3,326.3,0.00,20.3,22.9,"03:47:30",1
"19/09/27","04:00",0.0,21.8,91.6,1019.2,298.6,1.0,1.7,313.1,0.00,20.4,22.9,"03:56:40",1
"19/09/27","04:10",0.0,21.9,91.5,1019.9,343.6,1.0,2.1,320.5,0.00,20.5,22.7,"04:08:32",1
"19/09/27","04:20",0.2,21.9,91.5,1019.9,314.3,1.1,1.6,338.0,0.00,20.5,22.7,"04:15:52",1
"19/09/27","04:30",0.0,22.0,91.4,1019.9,327.2,1.2,2.1,335.3,0.00,20.6,22.8,"04:29:20",1
"19/09/27","04:40",0.0,22.0,91.3,1019.9,333.1,1.3,2.1,341.7,0.00,20.6,22.7,"04:30:40",1
"19/09/27","04:50",0.0,21.9,91.3,1019.7,316.2,1.1,1.8,341.5,0.00,20.5,22.9,"04:42:08",1
"19/09/27","05:00",0.0,21.7,91.3,1019.7,303.8,1.0,1.4,304.1,0.00,20.3,22.7,"04:56:08",1
"19/09/27","05:10",0.0,21.5,91.8,1019.9,281.6,1.0,1.6,315.9,0.00,20.2,22.8,"05:09:44",1
"19/09/27","05:20",0.0,21.5,91.8,1020.1,298.2,1.3,1.9,316.9,0.00,20.2,22.6,"05:14:32",1
"19/09/27","05:30",0.0,21.5,91.6,1020.1,317.9,1.1,1.7,312.6,0.00,20.1,22.6,"05:22:00",1
"19/09/27","05:40",0.0,21.4,91.6,1020.1,322.1,1.3,2.1,342.4,0.00,20.0,22.8,"05:35:36",1
"19/09/27","05:50",0.0,21.3,92.0,1020.1,293.8,0.7,1.4,321.6,0.00,20.0,22.6,"05:40:16",1
"19/09/27","06:00",0.0,21.3,92.2,1020.1,312.2,1.0,1.6,333.1,0.00,20.0,22.7,"05:59:28",1
"19/09/27","06:10",0.0,21.2,92.1,1019.9,311.3,1.1,1.7,329.6,0.00,19.9,22.6,"06:02:32",1
"19/09/27","06:20",0.0,21.0,92.1,1020.1,298.2,0.8,1.4,316.9,0.00,19.7,22.6,"06:10:56",1
"19/09/27","06:30",0.0,21.0,92.8,1019.9,301.5,1.1,1.7,331.7,0.00,19.8,22.5,"06:23:52",1
"19/09/27","06:40",0.0,21.3,92.8,1020.1,310.6,1.1,1.8,320.7,0.00,20.1,22.5,"06:38:08",1
"19/09/27","06:50",0.0,21.5,92.8,1020.1,322.0,1.2,2.0,328.9,0.00,20.3,22.7,"06:42:32",1
"19/09/27","07:00",0.0,21.7,92.6,1020.1,301.6,1.2,1.8,308.2,0.00,20.5,22.8,"06:50:02",1
"19/09/27","07:10",0.0,22.0,92.7,1019.9,303.0,0.8,1.9,309.3,0.00,20.8,22.5,"07:00:08",1
"19/09/27","07:20",0.0,22.2,92.2,1020.1,325.4,1.0,2.0,321.9,0.00,20.9,22.6,"07:17:20",1
"19/09/27","07:30",0.0,22.4,91.7,1020.1,314.9,1.1,2.1,338.6,0.00,21.0,22.6,"07:22:00",1
"19/09/27","07:40",0.0,22.5,91.5,1020.1,322.0,0.7,1.4,324.1,0.00,21.1,22.5,"07:37:04",1
"19/09/27","07:50",0.0,22.6,91.1,1020.1,328.3,0.8,1.9,335.4,0.02,21.1,22.7,"07:42:16",1
"19/09/27","08:00",0.0,23.3,89.4,1020.1,80.6,1.1,2.4,73.1,0.07,21.5,22.8,"07:54:48",1
"19/09/27","08:10",0.0,23.9,86.8,1020.1,114.5,0.7,1.9,120.6,0.06,21.6,22.9,"08:00:56",1
"19/09/27","08:20",0.0,24.4,83.9,1020.4,141.7,0.7,1.6,107.1,0.08,21.5,22.9,"08:15:20",1
"19/09/27","08:30",0.0,25.0,79.3,1020.1,88.1,0.8,2.0,34.8,0.10,21.2,22.9,"08:26:48",1
"19/09/27","08:40",0.0,25.0,78.2,1020.4,111.9,1.2,2.7,109.1,0.10,21.0,23.2,"08:35:20",1
"19/09/27","08:50",0.0,25.3,76.5,1020.4,108.8,1.3,3.7,90.6,0.13,20.9,23.2,"08:47:12",1
"19/09/27","09:00",0.0,25.6,76.5,1020.4,133.8,1.1,3.3,130.4,0.14,21.2,23.4,"08:53:04",1
"19/09/27","09:10",0.0,25.7,74.8,1019.9,105.8,1.7,3.9,83.0,0.10,20.9,23.3,"09:01:28",1
"19/09/27","09:20",0.0,25.6,74.4,1020.1,81.1,1.1,3.4,44.2,0.06,20.7,23.4,"09:15:44",1
"19/09/27","09:30",0.0,25.6,74.1,1020.1,93.7,1.0,2.6,102.5,0.08,20.7,23.4,"09:27:52",1
"19/09/27","09:40",0.0,25.2,74.6,1020.4,166.6,1.0,3.2,171.1,0.04,20.4,23.4,"09:34:00",1
"19/09/27","09:50",0.0,25.3,74.5,1020.1,105.4,1.6,3.4,115.7,0.06,20.5,23.4,"09:42:32",1
"19/09/27","10:00",0.0,25.7,73.8,1019.9,109.6,1.3,3.3,108.3,0.14,20.7,23.5,"09:58:18",1
"19/09/27","10:10",0.0,25.9,73.0,1019.9,120.5,1.3,3.7,98.4,0.17,20.7,23.5,"10:01:04",1
"19/09/27","10:20",0.0,26.5,71.3,1019.7,120.1,1.7,3.3,159.8,0.29,20.9,23.6,"10:11:44",1
"19/09/27","10:30",0.0,26.5,69.4,1019.4,73.5,1.1,3.3,121.5,0.22,20.5,23.9,"10:20:32",1
"19/09/27","10:40",0.0,26.1,70.3,1019.4,89.5,1.2,2.7,141.6,0.15,20.3,24.0,"10:39:36",1
"19/09/27","10:50",0.0,26.1,70.9,1019.2,113.9,1.1,2.5,102.2,0.13,20.4,24.0,"10:46:16",1
"19/09/27","11:00",0.0,26.7,69.5,1019.2,94.8,0.8,1.9,114.0,0.18,20.7,24.2,"10:51:28",1
"19/09/27","11:10",0.0,27.3,67.0,1019.0,87.9,1.2,2.5,111.1,0.31,20.7,24.3,"11:04:32",1
"19/09/27","11:20",0.0,26.9,68.7,1018.7,98.4,1.2,3.4,111.5,0.18,20.7,24.4,"11:19:12",1
"19/09/27","11:30",0.0,26.8,67.2,1019.2,109.0,1.2,3.1,110.2,0.19,20.2,24.6,"11:29:52",1
"19/09/27","11:40",0.0,27.0,67.5,1018.5,80.6,1.1,2.6,105.6,0.16,20.5,24.7,"11:34:48",1
"19/09/27","11:50",0.0,27.3,67.0,1018.0,97.5,1.2,2.6,105.7,0.19,20.7,24.6,"11:41:52",1
"19/09/27","12:00",0.0,26.9,68.7,1018.2,111.6,1.2,3.4,102.9,0.18,20.7,24.7,"11:56:00",1
"19/09/27","12:10",0.0,27.3,67.3,1018.2,98.2,1.0,2.8,109.8,0.17,20.7,24.8,"12:02:48",1
"19/09/27","12:20",0.0,27.7,65.2,1017.5,90.9,1.1,2.9,105.1,0.22,20.6,25.0,"12:10:48",1
"19/09/27","12:30",0.0,27.5,66.9,1018.2,140.3,1.5,3.1,120.8,0.22,20.8,25.0,"12:20:16",1
"19/09/27","12:40",0.0,27.4,65.4,1017.5,74.9,1.1,2.7,59.8,0.11,20.4,25.0,"12:32:40",1
"19/09/27","12:50",0.0,27.3,66.4,1017.5,101.8,1.2,2.5,92.1,0.12,20.5,25.0,"12:40:16",1
"19/09/27","13:00",0.0,27.6,64.6,1017.8,104.0,1.2,3.1,156.8,0.15,20.4,25.2,"12:59:36",1
"19/09/27","13:10",0.0,27.7,65.4,1017.3,145.2,1.2,3.1,148.0,0.16,20.7,25.2,"13:00:56",1
"19/09/27","13:20",0.0,27.0,66.5,1017.1,125.5,1.1,3.5,98.6,0.10,20.3,25.1,"13:13:28",1
"19/09/27","13:30",0.0,27.4,65.2,1017.1,137.2,0.8,2.4,25.3,0.06,20.3,25.1,"13:23:44",1
"19/09/27","13:40",0.0,27.1,66.5,1017.3,135.8,1.0,2.4,211.3,0.04,20.4,25.2,"13:36:00",1
"19/09/27","13:50",0.0,27.4,66.7,1017.5,73.9,0.8,1.8,109.0,0.07,20.7,25.2,"13:40:48",1
"19/09/27","14:00",0.0,27.2,66.6,1017.3,126.1,0.8,4.1,99.5,0.03,20.5,25.0,"13:51:36",1
"19/09/27","14:10",0.0,27.1,67.0,1017.3,99.0,0.7,1.8,101.2,0.02,20.5,24.9,"14:01:52",1
"19/09/27","14:20",0.0,27.1,68.0,1017.1,182.7,0.6,1.7,191.5,0.05,20.7,24.8,"14:19:36",1
"19/09/27","14:30",0.0,27.3,67.1,1017.1,177.7,1.3,2.5,190.5,0.08,20.7,24.9,"14:23:44",1
"19/09/27","14:40",0.2,27.2,67.3,1016.8,168.4,1.3,2.9,104.6,0.06,20.7,24.9,"14:37:20",1
"19/09/27","14:50",0.0,27.1,68.3,1016.8,163.7,1.3,3.1,125.5,0.12,20.8,25.0,"14:41:28",1
"19/09/27","15:00",0.0,27.4,67.3,1016.4,162.0,1.2,2.8,134.0,0.17,20.8,25.1,"14:52:00",1
"19/09/27","15:10",0.0,27.2,67.3,1016.8,144.9,1.6,4.2,116.8,0.15,20.7,25.2,"15:04:08",1
"19/09/27","15:20",0.0,27.5,66.6,1016.4,122.9,1.3,2.7,95.4,0.13,20.8,24.8,"15:17:20",1
"19/09/27","15:30",0.0,27.5,66.2,1016.6,151.4,1.2,3.1,140.3,0.09,20.7,25.2,"15:20:08",1
"19/09/27","15:40",0.0,27.5,64.7,1016.6,75.8,1.2,2.7,114.9,0.05,20.3,25.2,"15:37:20",1
"19/09/27","15:50",0.0,27.3,65.9,1016.4,96.6,1.0,2.8,107.9,0.03,20.4,25.2,"15:44:56",1
"19/09/27","16:00",0.0,27.2,66.2,1016.4,74.2,1.1,2.8,116.7,0.05,20.4,24.9,"15:58:48",1
"19/09/27","16:10",0.0,27.1,66.6,1016.4,77.7,0.7,2.0,65.7,0.02,20.4,24.9,"16:01:44",1
"19/09/27","16:20",0.0,26.9,67.3,1016.8,65.9,0.8,2.9,96.8,0.00,20.4,25.0,"16:13:52",1
"19/09/27","16:30",0.0,26.8,67.8,1016.6,75.1,0.7,1.9,53.9,0.00,20.4,24.9,"16:28:48",1
"19/09/27","16:40",0.0,26.7,68.6,1016.6,93.1,0.7,2.5,159.7,0.00,20.5,24.7,"16:36:32",1
"19/09/27","16:50",0.0,26.6,69.2,1016.8,109.5,1.1,3.5,131.2,0.00,20.5,24.9,"16:45:12",1
"19/09/27","17:00",0.0,26.5,69.1,1017.3,106.7,1.1,2.6,102.8,0.00,20.4,24.7,"16:56:24",1
"19/09/27","17:10",0.0,26.5,69.1,1017.1,97.9,1.3,2.7,118.6,0.00,20.4,24.8,"17:09:52",1
"19/09/27","17:20",0.0,26.5,69.0,1017.1,90.2,1.5,3.6,106.1,0.00,20.4,24.6,"17:17:52",1
"19/09/27","17:30",0.0,26.4,69.4,1017.1,94.1,1.6,3.7,87.7,0.00,20.4,24.6,"17:23:44",1
"19/09/27","17:40",0.0,26.4,69.8,1017.3,89.0,1.6,3.4,103.5,0.00,20.5,24.4,"17:32:40",1
"19/09/27","17:50",0.0,26.2,70.7,1017.3,93.8,1.3,3.1,117.8,0.00,20.5,24.4,"17:45:36",1
"19/09/27","18:00",0.0,26.1,71.2,1017.3,85.9,1.3,3.4,71.0,0.00,20.5,24.6,"17:56:00",1
"19/09/27","18:10",0.0,26.1,71.6,1017.3,104.8,1.2,2.6,107.2,0.00,20.6,24.3,"18:06:24",1
"19/09/27","18:20",0.0,25.9,72.3,1017.3,102.0,1.1,3.9,119.0,0.00,20.6,24.4,"18:18:32",1
"19/09/27","18:30",0.0,25.9,72.3,1017.5,101.9,1.3,3.7,108.0,0.00,20.6,24.5,"18:28:56",1
"19/09/27","18:40",0.0,25.7,72.4,1017.8,97.8,1.1,2.5,102.2,0.00,20.4,24.3,"18:36:16",1
"19/09/27","18:50",0.0,25.7,72.9,1017.1,87.9,0.6,1.7,113.2,0.00,20.5,24.2,"18:45:04",1
"19/09/27","19:00",0.0,25.6,73.3,1017.8,91.5,0.8,3.2,105.3,0.00,20.5,24.1,"18:55:52",1
"19/09/27","19:10",0.0,25.7,73.0,1017.5,93.2,1.2,2.5,119.3,0.00,20.5,24.4,"19:00:08",1
"19/09/27","19:20",0.0,25.6,73.0,1017.8,81.5,1.1,2.5,100.4,0.00,20.4,24.2,"19:13:52",1
"19/09/27","19:30",0.0,25.6,73.2,1017.8,88.1,1.0,2.5,118.8,0.00,20.5,24.1,"19:29:20",1
"19/09/27","19:40",0.0,25.5,73.4,1017.5,74.6,1.0,2.6,105.9,0.00,20.4,24.2,"19:39:04",1
"19/09/27","19:50",0.0,25.5,73.5,1017.5,83.8,0.8,1.9,98.4,0.00,20.5,23.8,"19:42:16",1
"19/09/27","20:00",0.0,25.3,73.7,1017.5,74.1,0.7,1.9,56.9,0.00,20.3,24.0,"19:56:24",1
"19/09/27","20:10",0.0,25.2,74.0,1017.5,31.9,0.7,2.1,33.9,0.00,20.3,23.9,"20:06:24",1
"19/09/27","20:20",0.0,24.8,75.2,1017.8,354.3,0.6,1.2,344.9,0.00,20.2,23.9,"20:12:40",1
"19/09/27","20:30",0.0,24.7,75.9,1017.8,10.7,0.8,2.0,85.4,0.00,20.2,23.8,"20:28:08",1
"19/09/27","20:40",0.0,24.7,76.0,1017.8,31.5,0.8,2.2,44.0,0.00,20.2,23.9,"20:35:36",1
"19/09/27","20:50",0.0,24.7,76.1,1018.2,26.2,0.8,1.8,3.8,0.00,20.2,23.8,"20:46:48",1
"19/09/27","21:00",0.0,24.6,76.4,1018.7,42.9,0.6,1.7,39.5,0.00,20.2,23.8,"20:52:00",1
"19/09/27","21:10",0.0,24.6,77.0,1018.2,35.2,0.5,1.4,95.7,0.00,20.3,23.7,"21:08:52",1
"19/09/27","21:20",0.0,24.6,77.0,1018.7,54.6,0.7,1.7,25.2,0.00,20.3,23.7,"21:13:28",1
"19/09/27","21:30",0.0,24.6,76.8,1018.5,64.6,0.7,1.7,63.6,0.00,20.3,23.6,"21:27:36",1
"19/09/27","21:40",0.0,24.5,76.8,1018.2,30.0,0.6,1.7,79.8,0.00,20.2,23.7,"21:34:00",1
"19/09/27","21:50",0.0,24.5,76.9,1018.5,39.7,0.6,1.6,7.2,0.00,20.2,23.6,"21:45:28",1
"19/09/27","22:00",0.0,24.6,76.5,1018.7,41.0,0.8,2.4,57.3,0.00,20.2,23.5,"21:59:20",1
"19/09/27","22:10",0.0,24.7,75.8,1018.5,11.6,0.8,2.1,81.4,0.00,20.2,23.5,"22:02:00",1
"19/09/27","22:20",0.0,24.7,75.5,1018.7,52.6,0.6,1.4,10.8,0.00,20.1,23.4,"22:10:24",1
"19/09/27","22:30",0.0,24.7,75.5,1018.7,61.5,0.5,1.6,63.1,0.00,20.1,23.6,"22:23:52",1
"19/09/27","22:40",0.0,24.6,75.8,1018.5,1.9,0.6,1.7,346.8,0.00,20.1,23.5,"22:32:16",1
"19/09/27","22:50",0.0,24.4,76.0,1018.2,351.1,0.5,1.1,16.8,0.00,19.9,23.7,"22:46:00",1
"19/09/27","23:00",0.0,24.4,75.4,1018.2,5.6,0.7,1.9,39.9,0.00,19.8,23.5,"22:51:20",1
"19/09/27","23:10",0.0,24.2,76.1,1018.5,298.0,0.5,1.0,252.6,0.00,19.8,23.4,"23:08:24",1
"19/09/27","23:20",0.0,23.9,77.5,1018.5,308.6,0.5,1.4,333.8,0.00,19.8,23.4,"23:12:56",1
"19/09/27","23:30",0.0,23.6,78.7,1018.0,297.1,0.3,1.1,324.0,0.00,19.7,23.3,"23:29:28",1
"19/09/27","23:40",0.0,23.3,79.4,1018.0,322.1,0.6,1.2,324.5,0.00,19.6,23.1,"23:39:20",1
"19/09/27","23:50",0.0,22.8,80.8,1017.8,299.6,0.7,1.0,318.1,0.00,19.4,23.2,"23:40:02",1
"19/09/27","24:00",0.0,22.4,82.6,1017.8,313.7,1.0,1.3,316.8,0.00,19.3,23.2,"23:51:20",1
